This is the latest recevied weather packets stored in our database for station/object VK3VJP-13. If no packets are shown the sender has not sent any weather packets the latest 10 day(s).
| Time | Temp. | Humidity | Pressure | Rain* | Wind** | Luminosity | Snow |
|---|---|---|---|---|---|---|---|
| 1778041382 | 12.22° C | 83% | 1016.2 hPa | 0 mm | - | - | - |
| 1778041082 | 12.22° C | 82% | 1016.3 hPa | 0 mm | - | - | - |
| 1778040782 | 12.22° C | 81% | 1016.3 hPa | 0 mm | - | - | - |
| 1778040482 | 12.78° C | 82% | 1016.3 hPa | 0 mm | - | - | - |
| 1778040182 | 12.78° C | 81% | 1016.5 hPa | 0 mm | - | - | - |
| 1778039882 | 12.22° C | 81% | 1016.6 hPa | 0 mm | - | - | - |
| 1778039582 | 12.22° C | 81% | 1016.6 hPa | 0 mm | - | - | - |
| 1778039282 | 12.22° C | 80% | 1016.8 hPa | 0 mm | - | - | - |
| 1778038982 | 12.22° C | 79% | 1016.8 hPa | 0 mm | - | - | - |
| 1778038682 | 12.22° C | 78% | 1017 hPa | 0 mm | - | - | - |
| 1778038382 | 12.22° C | 78% | 1016.9 hPa | 0 mm | - | - | - |
| 1778038082 | 12.78° C | 77% | 1017 hPa | 0 mm | - | - | - |
| 1778037782 | 12.78° C | 76% | 1017.1 hPa | 0 mm | - | - | - |
| 1778037482 | 12.78° C | 75% | 1016.9 hPa | 0 mm | - | - | - |
| 1778037182 | 13.33° C | 75% | 1017.3 hPa | 0 mm | - | - | - |
| 1778036882 | 13.33° C | 75% | 1017.2 hPa | 0 mm | - | - | - |
| 1778036582 | 13.89° C | 74% | 1017.3 hPa | 0 mm | - | - | - |
| 1778036282 | 13.89° C | 73% | 1017.2 hPa | 0 mm | - | - | - |
| 1778035982 | 13.89° C | 74% | 1017.3 hPa | 0 mm | - | - | - |
| 1778035682 | 13.33° C | 74% | 1017.4 hPa | 0 mm | - | - | - |
| 1778035382 | 13.33° C | 73% | 1017.5 hPa | 0 mm | - | - | - |
| 1778035082 | 13.33° C | 73% | 1017.6 hPa | 0 mm | - | - | - |
| 1778034782 | 13.33° C | 75% | 1017.7 hPa | 0 mm | - | - | - |
| 1778034482 | 13.33° C | 73% | 1017.8 hPa | 0 mm | - | - | - |
| 1778034182 | 13.33° C | 73% | 1018 hPa | 0 mm | - | - | - |
* Rain latest hour (hover to see other rain measurements)
** Current wind speed in m/s (hover to see current wind gust speed)